Dewpoint
10 11 12 12 12 12 12 12 11 11 10 11 11 11 10 8 8 8 10 10 9 9 9 9 9 9 10 9 10 9 8 8 10 11 11 11 10 9 9 10 10 10 9
10 10 12 12 11 12 12 12 11 11 10 10 11 11 8 7 8 8 9 11 10 10 9 9 10 10 10 9 9 9 10 10 11 10 10 10 10 10 10 10 10 10 9
8 9 12 12 12 12 12 11 11 11 10 10 10 11 6 8 9 8 8 8 10 11 11 11 11 11 10 9 10 10 11 10 10 10 10 10 10 10 10 10 10 9 5
8 10 12 12 12 12 12 12 12 11 10 10 10 8 8 9 9 8 9 9 9 11 11 11 11 11 10 9 10 11 11 11 11 10 10 10 10 10 10 10 9 8 3
7 10 11 12 11 12 11 12 12 12 11 11 11 8 8 9 9 10 12 12 11 11 11 11 11 11 11 10 10 10 11 11 11 10 10 10 10 10 10 9 7 4 3
8 9 11 11 11 12 11 11 11 11 11 11 11 8 8 8 8 8 9 11 11 11 10 10 10 11 11 11 11 10 11 11 10 10 10 10 10 10 10 7 5 7 8
8 9 11 11 11 12 11 11 11 12 11 12 11 9 8 8 8 8 8 10 11 11 11 11 11 10 11 11 10 10 11 10 10 10 10 10 10 9 9 8 8 9 8
7 8 10 10 11 11 12 12 12 12 10 9 9 8 8 8 8 8 8 11 10 11 11 10 11 10 10 10 11 10 11 10 10 10 9 9 9 9 8 7 9 9 8
6 7 10 10 11 11 11 12 12 10 9 9 10 10 9 9 9 10 10 10 10 10 11 10 10 10 11 10 10 10 10 10 10 10 10 9 10 10 9 7 7 8 8
6 6 9 9 10 10 10 12 12 12 10 10 10 11 10 10 10 10 10 10 10 10 10 11 10 9 10 9 9 10 9 10 10 10 10 10 9 8 1 6 8 8 8
5 6 8 10 10 10 10 11 12 12 12 10 11 10 10 10 10 9 10 10 10 11 10 10 10 9 9 9 8 7 8 9 10 10 10 8 2 1 4 9 10 9 7
5 5 7 10 10 11 10 11 12 12 12 12 10 10 10 10 10 10 10 10 11 10 10 9 10 9 8 8 8 5 3 5 7 7 7 8 8 8 6 6 6 6 6
5 6 7 9 9 10 11 9 10 12 11 11 11 11 11 10 10 9 10 10 10 10 10 9 9 8 7 6 6 6 6 9 8 8 8 8 8 5 2 2 3 3 4
5 6 7 8 10 9 9 8 8 9 9 8 8 10 11 11 10 9 9 10 11 11 10 9 8 7 8 7 7 7 8 8 8 7 5 4 -1 -1 1 2 3 4 5
6 6 7 7 8 10 8 7 5 7 7 7 6 6 9 10 11 11 10 10 11 10 9 9 9 9 9 8 8 7 7 7 7 6 5 0 -0 3 3 3 4 4 2
6 6 6 5 7 8 9 9 7 6 3 5 7 7 6 5 6 8 9 10 10 9 9 9 9 9 8 8 8 8 8 6 6 6 5 3 3 4 3 2 3 4 2
5 5 5 4 5 5 7 9 9 7 5 3 2 3 7 6 2 1 2 3 4 8 9 6 5 6 6 6 6 6 7 7 6 6 5 4 4 4 3 3 3 3 1
5 4 4 4 4 4 4 7 7 8 7 6 3 1 2 2 4 5 4 4 4 4 4 4 4 3 2 2 3 4 5 6 6 6 5 5 4 4 4 3 3 2 1
7 5 4 4 3 2 3 4 4 4 5 5 5 3 2 3 3 2 4 6 5 5 5 5 5 4 4 3 2 2 3 4 6 5 5 5 5 5 4 3 2 2 1
7 5 4 4 3 3 3 3 2 3 3 3 3 5 4 2 2 5 4 3 3 2 2 1 2 4 4 4 4 4 4 4 5 5 5 5 5 5 4 3 3 2 0
6 6 4 4 3 3 2 3 2 2 2 3 3 3 4 0 4 4 5 5 5 4 4 3 1 -0 1 3 3 3 3 4 5 5 5 5 5 5 4 3 3 2 -0
6 6 4 4 4 3 2 1 2 2 2 2 3 3 4 3 3 3 3 4 4 5 4 4 3 1 0 -0 -0 1 2 2 3 4 4 4 5 5 4 4 3 2 -0
5 5 5 4 4 4 4 2 2 2 2 2 2 2 4 5 3 2 2 4 5 5 4 4 4 3 2 1 1 -1 -1 -0 1 2 3 3 3 3 3 3 3 1 -0
4 5 5 4 4 4 4 4 3 2 2 2 2 2 2 5 5 4 3 4 5 5 5 4 4 3 3 3 3 3 0 -1 -1 -1 1 2 3 3 3 3 2 1 -0
4 5 5 5 4 4 5 5 5 4 4 3 3 3 2 2 5 5 4 4 4 6 6 6 6 4 2 3 4 3 2 -2 -1 2 3 3 3 3 2 2 1 1 -0
4 5 6 6 5 5 5 5 6 6 5 5 5 5 4 4 4 5 5 4 5 5 6 6 4 3 3 -1 -2 2 1 -2 -2 0 1 3 3 3 2 1 0 -1 -0
Wind_Speed
10 8 6 4 1 2 2 4 6 8 9 7 6 4 5 5 4 4 7 6 4 8 10 7 7 10 11 12 16 15 12 5 19 25 28 39 50 45 38 34 30 30 27
10 8 5 4 2 2 3 6 8 8 9 9 7 4 4 4 4 5 5 5 7 9 9 8 9 11 12 10 10 14 15 15 23 40 44 42 43 37 35 31 25 24 25
9 7 6 4 2 3 4 6 9 9 9 9 8 5 4 4 5 6 6 7 7 8 8 9 11 13 13 8 16 18 21 25 37 45 45 46 41 36 34 29 25 24 23
9 8 5 4 4 5 5 6 10 10 9 9 8 6 6 7 7 8 7 8 10 10 9 10 11 13 13 14 15 20 25 29 36 41 48 43 39 36 32 29 25 24 25
10 8 6 5 7 7 8 9 9 10 10 9 10 10 7 6 8 10 10 11 13 14 11 10 10 11 11 13 14 17 21 34 36 45 42 40 36 34 33 29 27 23 20
11 9 7 7 9 8 9 9 9 11 11 11 9 10 9 9 11 12 12 11 13 14 14 14 15 14 14 14 17 16 21 36 41 43 42 38 37 33 31 27 26 26 22
12 10 9 9 10 9 10 10 10 10 11 9 9 10 12 14 12 10 10 12 12 14 16 16 17 16 16 17 17 17 20 24 36 35 41 40 35 30 28 27 23 18 15
13 12 11 10 11 10 10 11 11 10 10 9 10 11 12 12 10 8 9 8 13 14 14 16 17 13 15 19 17 19 18 23 26 26 33 31 30 26 24 23 20 20 18
15 14 13 12 12 11 10 11 10 10 7 7 11 12 12 11 9 7 10 11 14 15 16 17 17 17 19 22 23 24 20 21 23 26 26 28 23 20 20 22 21 18 17
18 16 15 13 13 11 10 10 12 11 9 10 12 10 14 11 7 9 13 16 20 18 18 20 19 22 27 27 26 24 24 23 29 33 29 22 19 21 19 15 16 13 14
19 17 17 16 14 12 11 10 13 13 10 12 15 14 13 14 13 11 14 16 22 21 23 25 23 20 21 20 16 21 25 27 28 29 26 24 23 23 22 15 14 11 13
21 19 18 17 15 13 11 11 13 13 13 13 13 13 14 15 13 14 16 17 21 26 24 25 23 18 19 19 19 22 24 25 21 21 21 20 18 17 20 19 20 18 19
23 21 20 19 17 16 14 13 13 13 12 12 11 11 12 12 15 16 17 22 21 21 24 24 20 18 21 21 21 21 22 17 19 19 18 17 16 20 18 17 16 14 11
25 24 21 20 20 18 16 15 14 14 14 13 12 13 13 13 16 20 21 23 21 21 22 23 19 19 20 18 20 21 14 16 17 15 15 15 18 17 17 15 15 15 14
26 25 24 21 22 19 18 17 15 15 14 13 13 13 15 16 16 19 21 19 18 20 22 21 17 16 15 18 19 17 14 17 15 14 15 17 17 16 15 16 15 14 10
28 27 26 24 22 21 20 18 21 18 20 19 17 14 13 14 17 19 21 22 23 21 18 15 15 16 17 18 18 17 16 18 15 15 15 16 17 16 15 16 14 12 11
32 29 26 25 23 23 23 21 21 24 20 19 18 20 18 18 18 18 18 18 17 19 16 15 16 17 18 19 19 20 20 18 17 16 16 17 16 16 17 14 14 13 12
32 31 28 28 25 24 24 23 21 21 23 24 25 23 22 20 20 20 20 20 21 21 17 16 17 17 18 19 19 20 19 19 19 18 18 18 18 17 17 17 16 16 16
33 30 28 26 25 25 24 24 23 22 21 21 21 27 27 26 24 24 23 21 19 20 20 18 17 18 19 20 21 21 22 22 21 21 21 20 20 20 19 19 18 20 20
33 33 32 26 26 26 25 24 24 24 23 23 24 22 29 32 32 31 30 29 22 21 21 22 21 20 21 21 22 22 23 24 26 24 23 22 22 22 20 20 20 20 23
34 34 35 29 27 26 26 26 25 25 24 24 24 23 26 32 27 27 28 32 29 26 26 25 25 25 24 24 23 23 24 24 25 24 24 24 23 24 23 23 23 24 22
34 33 38 35 29 27 28 27 26 26 25 25 24 23 27 29 24 25 26 26 28 29 27 25 25 26 26 26 27 27 27 26 26 25 25 24 24 25 24 25 25 26 27
32 33 32 36 33 30 29 27 27 28 27 27 26 25 28 28 29 27 27 26 26 26 27 28 27 26 26 27 27 28 28 27 26 26 26 28 29 30 27 30 30 29 30
29 31 30 32 34 33 32 32 30 30 28 28 28 28 28 27 29 31 29 27 26 26 26 27 28 29 28 27 28 27 27 27 26 27 30 27 27 30 27 33 31 32 33
28 29 30 29 32 35 31 30 30 29 29 30 29 29 29 29 26 28 29 30 28 27 27 27 26 28 31 31 30 29 29 31 29 28 25 28 28 30 30 35 36 35 36
27 28 28 28 28 29 30 26 26 25 27 28 29 30 30 30 31 29 28 29 30 29 29 27 29 29 28 28 31 32 33 33 31 32 34 32 27 30 35 38 39 38 36
Wind_Direction
166 168 171 156 151 170 177 156 146 157 165 161 160 152 154 153 170 182 168 172 192 170 182 185 170 158 145 136 153 154 142 124 169 175 164 159 153 149 155 149 144 150 151
165 167 176 150 156 191 138 141 153 163 164 168 163 142 156 170 192 187 166 158 158 171 179 176 171 165 156 155 171 161 151 149 158 140 142 147 149 148 150 155 151 146 150
166 168 173 155 171 145 140 144 148 161 164 162 159 174 161 169 166 164 170 165 160 155 153 155 164 162 168 165 168 163 154 146 156 142 146 152 149 149 148 144 143 138 136
165 165 173 159 131 134 129 122 140 152 154 157 154 165 155 165 162 148 157 159 154 139 136 135 133 147 143 141 147 153 153 156 157 141 148 154 153 153 147 143 137 137 145
163 164 168 148 143 135 123 127 132 140 143 148 151 144 139 150 150 135 132 133 135 138 140 130 137 150 153 150 149 150 162 162 149 161 149 155 154 149 146 145 138 142 140
165 164 164 150 151 143 135 133 135 134 139 143 144 147 141 139 135 127 125 125 133 143 141 133 123 125 135 146 154 152 160 163 153 156 164 157 153 150 149 146 145 146 142
165 166 158 155 157 145 141 136 137 137 136 139 143 152 144 140 129 117 117 123 130 131 141 132 130 123 125 133 137 136 161 163 170 163 155 162 155 158 158 155 154 145 154
168 166 162 155 158 147 143 143 144 143 154 155 166 164 159 160 146 137 130 124 138 138 136 128 123 124 131 137 134 133 152 164 168 163 155 151 156 160 155 149 146 165 163
172 169 166 161 160 156 154 149 146 140 143 175 186 178 172 170 164 156 136 150 147 147 138 131 128 118 120 132 138 135 131 140 147 164 150 151 155 154 158 164 166 155 157
177 172 169 166 160 158 157 149 151 140 113 127 136 159 176 175 165 157 154 163 150 152 147 133 135 123 132 117 125 132 134 131 140 146 155 160 169 168 164 154 159 167 170
179 175 173 170 168 164 157 152 154 149 136 124 129 135 149 149 143 143 157 152 155 147 147 138 132 125 140 148 128 137 137 138 143 151 158 163 162 165 168 164 178 184 180
180 179 177 176 171 173 165 156 157 158 149 138 133 137 144 143 139 132 148 150 149 152 146 141 139 139 145 150 145 142 144 139 144 146 151 156 160 169 182 187 186 180 186
181 182 181 181 177 180 173 167 160 161 162 156 148 143 142 148 145 133 141 154 155 150 149 152 146 142 144 146 146 148 152 147 150 152 158 163 170 186 185 185 192 200 205
183 183 184 184 184 183 181 179 176 170 171 167 164 161 155 149 153 149 143 146 144 155 160 155 153 151 147 160 158 156 159 162 160 162 163 169 183 181 186 194 197 198 203
185 185 186 187 188 190 186 188 187 187 182 177 174 171 170 169 172 168 167 166 162 165 165 164 166 168 169 170 173 168 167 167 166 173 177 185 184 183 190 191 189 188 191
186 188 190 189 192 194 194 197 192 195 191 185 182 176 182 184 189 177 175 175 176 182 174 179 182 183 184 186 188 190 190 189 189 188 188 189 189 189 193 198 196 192 194
188 191 193 190 194 193 197 201 202 204 201 198 196 189 185 195 191 184 182 182 185 188 188 193 193 193 194 197 200 203 204 206 203 202 202 199 198 197 204 197 199 201 197
194 195 191 193 197 195 197 201 203 205 205 205 201 197 195 196 196 196 195 195 196 197 198 205 206 207 206 207 208 210 212 213 211 210 210 208 205 203 205 205 204 202 200
194 197 194 197 200 199 199 200 202 206 209 209 208 205 202 200 199 202 206 206 209 212 213 212 214 213 213 213 213 213 214 216 217 215 214 213 213 210 215 211 211 207 202
198 199 195 199 200 201 202 201 202 204 206 208 210 214 209 206 207 209 210 209 212 219 221 222 221 219 218 218 218 218 219 218 221 220 218 218 218 217 218 216 216 212 204
197 201 203 199 201 203 204 206 205 205 207 209 212 214 217 217 212 215 219 220 219 218 219 221 222 223 222 220 219 220 220 222 222 224 223 223 221 220 218 218 214 212 207
196 198 203 201 204 205 204 207 209 211 212 213 214 216 221 222 215 221 224 228 227 226 226 226 225 224 224 224 223 221 222 224 224 225 226 226 226 225 222 217 214 211 207
201 199 203 200 205 207 206 208 211 213 216 217 218 217 224 221 218 220 224 225 228 228 229 229 230 230 228 226 226 226 227 228 229 229 228 228 224 226 221 217 210 208 213
206 206 208 204 204 206 208 208 213 216 216 218 219 221 224 224 223 222 224 228 228 230 231 231 229 230 230 228 230 228 229 229 228 230 231 229 226 230 224 221 213 214 213
209 209 209 209 208 208 211 211 213 217 221 221 222 223 224 228 231 227 226 227 231 231 232 232 233 235 234 229 229 231 233 239 239 234 228 233 230 225 221 222 221 211 218
208 214 211 208 208 210 208 213 215 222 226 228 229 227 226 227 229 231 227 226 227 231 232 234 239 241 241 242 239 236 240 246 244 242 244 244 231 230 228 229 227 228 215
Height
1447 1448 1449 1450 1449 1449 1449 1449 1449 1451 1453 1455 1455 1456 1456 1457 1458 1458 1458 1459 1460 1462 1464 1465 1466 1467 1470 1472 1474 1475 1476 1478 1482 1487 1491 1496 1502 1511 1520 1524 1530 1535 1541
1446 1447 1448 1449 1449 1448 1448 1449 1450 1452 1454 1455 1457 1457 1457 1457 1458 1458 1459 1460 1461 1463 1464 1465 1466 1468 1470 1473 1474 1476 1478 1480 1483 1486 1491 1501 1508 1514 1521 1527 1533 1539 1544
1445 1447 1448 1448 1448 1448 1448 1448 1450 1452 1454 1456 1457 1458 1457 1458 1459 1459 1460 1460 1462 1465 1466 1466 1468 1470 1472 1474 1475 1478 1480 1483 1489 1491 1497 1505 1512 1519 1524 1531 1535 1541 1545
1444 1446 1447 1448 1448 1449 1449 1450 1451 1453 1455 1456 1458 1457 1458 1459 1459 1461 1461 1462 1463 1466 1467 1468 1469 1471 1473 1475 1476 1480 1483 1486 1492 1496 1501 1509 1516 1523 1527 1533 1538 1544 1550
1444 1446 1447 1448 1449 1450 1450 1451 1452 1454 1456 1457 1457 1458 1459 1460 1461 1462 1463 1464 1465 1467 1469 1471 1472 1474 1476 1478 1480 1482 1485 1489 1493 1500 1505 1512 1518 1524 1529 1536 1541 1547 1552
1444 1446 1447 1449 1450 1450 1451 1453 1453 1454 1457 1459 1460 1459 1461 1462 1463 1464 1465 1467 1468 1469 1471 1473 1474 1476 1479 1481 1484 1487 1489 1491 1495 1502 1507 1514 1521 1526 1532 1537 1543 1548 1553
1444 1446 1447 1449 1451 1451 1453 1454 1455 1456 1458 1459 1460 1461 1463 1464 1466 1466 1467 1469 1471 1472 1473 1475 1477 1480 1481 1484 1486 1490 1493 1497 1501 1505 1510 1517 1523 1529 1534 1541 1546 1551 1554
1443 1446 1448 1450 1452 1453 1453 1455 1456 1458 1458 1459 1460 1462 1465 1466 1467 1469 1469 1472 1473 1475 1476 1478 1480 1482 1484 1487 1489 1492 1496 1500 1505 1511 1516 1522 1528 1533 1538 1544 1548 1551 1555
1442 1445 1448 1450 1453 1455 1455 1456 1457 1458 1458 1459 1460 1463 1466 1468 1469 1470 1471 1474 1476 1478 1480 1482 1484 1485 1486 1490 1492 1496 1500 1504 1509 1515 1521 1527 1532 1537 1543 1544 1548 1552 1556
1440 1444 1448 1450 1453 1456 1456 1457 1458 1460 1460 1460 1461 1463 1464 1467 1469 1470 1472 1475 1477 1480 1482 1485 1488 1490 1494 1497 1499 1503 1505 1509 1513 1519 1525 1531 1535 1539 1543 1548 1552 1554 1556
1439 1443 1447 1450 1453 1456 1456 1458 1460 1462 1463 1463 1464 1466 1468 1469 1470 1471 1473 1476 1479 1482 1485 1489 1493 1496 1499 1502 1505 1507 1509 1513 1518 1523 1527 1532 1537 1540 1545 1547 1551 1553 1555
1437 1442 1445 1449 1453 1455 1457 1459 1461 1463 1465 1466 1467 1469 1470 1472 1473 1474 1477 1479 1483 1486 1489 1493 1496 1500 1503 1506 1508 1512 1515 1519 1524 1528 1532 1535 1538 1541 1542 1545 1547 1548 1550
1435 1440 1444 1448 1451 1454 1457 1459 1462 1464 1467 1469 1471 1472 1473 1475 1476 1478 1480 1483 1487 1490 1493 1496 1499 1502 1506 1509 1512 1515 1519 1523 1526 1530 1533 1536 1538 1539 1542 1543 1545 1547 1548
1432 1437 1442 1446 1450 1453 1457 1459 1462 1465 1468 1470 1472 1474 1477 1478 1479 1481 1483 1487 1490 1493 1496 1499 1502 1505 1508 1512 1515 1518 1523 1526 1528 1531 1534 1535 1536 1539 1541 1542 1544 1545 1547
1429 1434 1439 1443 1447 1451 1455 1458 1461 1464 1467 1470 1472 1474 1477 1479 1481 1483 1485 1489 1493 1496 1498 1501 1504 1507 1510 1513 1516 1519 1523 1524 1528 1530 1531 1532 1535 1537 1539 1540 1542 1543 1544
1425 1430 1435 1439 1443 1448 1452 1455 1458 1461 1464 1467 1470 1474 1476 1479 1480 1482 1485 1489 1492 1495 1499 1502 1505 1508 1511 1514 1517 1519 1521 1523 1526 1527 1528 1530 1532 1534 1535 1536 1538 1541 1543
1418 1425 1430 1435 1439 1444 1448 1452 1455 1458 1461 1464 1467 1471 1474 1476 1479 1483 1486 1489 1493 1495 1499 1502 1504 1507 1509 1512 1514 1516 1519 1520 1522 1524 1525 1527 1529 1531 1531 1534 1536 1539 1540
1413 1419 1425 1430 1435 1439 1443 1448 1452 1455 1457 1460 1463 1466 1470 1473 1477 1481 1484 1487 1489 1492 1496 1499 1501 1504 1506 1509 1511 1513 1516 1517 1518 1520 1522 1523 1525 1527 1526 1529 1531 1532 1534
1408 1414 1421 1425 1430 1434 1438 1443 1447 1451 1454 1458 1461 1463 1466 1469 1473 1477 1480 1484 1487 1489 1492 1495 1497 1499 1501 1504 1506 1508 1510 1512 1512 1513 1516 1518 1519 1520 1521 1524 1524 1525 1525
1403 1409 1413 1420 1425 1430 1434 1437 1441 1445 1449 1453 1456 1458 1460 1463 1466 1469 1473 1477 1482 1484 1486 1488 1490 1492 1495 1497 1499 1501 1503 1504 1505 1506 1509 1511 1512 1514 1516 1519 1521 1521 1520
1396 1402 1407 1415 1420 1424 1428 1432 1436 1439 1442 1446 1450 1453 1455 1457 1462 1466 1467 1468 1471 1474 1475 1477 1480 1483 1485 1487 1490 1492 1494 1496 1497 1499 1502 1504 1506 1507 1509 1511 1512 1512 1514
1389 1395 1398 1407 1413 1417 1421 1426 1430 1433 1437 1440 1444 1447 1448 1452 1457 1460 1462 1463 1464 1466 1469 1471 1473 1474 1476 1478 1480 1481 1484 1487 1489 1491 1494 1498 1499 1499 1501 1503 1504 1503 1502
1385 1389 1391 1398 1405 1410 1414 1419 1422 1426 1430 1433 1437 1440 1441 1445 1447 1451 1454 1456 1457 1458 1460 1463 1465 1467 1468 1470 1471 1472 1475 1479 1483 1485 1485 1485 1486 1488 1491 1491 1493 1494 1494
1381 1384 1387 1391 1396 1400 1404 1408 1413 1417 1421 1425 1428 1432 1435 1435 1438 1441 1445 1448 1450 1450 1451 1453 1454 1456 1459 1462 1463 1464 1465 1468 1471 1474 1475 1478 1479 1480 1482 1483 1484 1484 1486
1374 1377 1381 1384 1388 1392 1397 1400 1404 1409 1412 1416 1419 1422 1425 1429 1430 1432 1435 1438 1441 1443 1443 1444 1445 1447 1448 1451 1453 1454 1456 1457 1461 1464 1468 1469 1468 1468 1469 1471 1473 1474 1477
1367 1370 1374 1376 1381 1385 1389 1393 1397 1402 1406 1408 1411 1413 1415 1418 1421 1423 1425 1428 1430 1432 1434 1435 1436 1438 1439 1441 1443 1446 1448 1449 1451 1453 1453 1456 1460 1460 1460 1462 1462 1464 1470